TJS-3 (43874 NORAD) Tracking and Keplerian Element Data

This shows tracking and keplerian element data for the satellite.

Feedback or suggestion? Click here.




ElementValue
Catalog43874
NameTJS-3
Epoch Orbit2561
Epoch Day353.71244248
Epoch Year2025
RAAN82.7125
Inclination2.0816
Eccentricity0.00015
Argument of Perigee186.0278
Mean Anonmoly135.2948
Mean Motion1.00270082
Decay Rate7.9E-07
L11 43874U 18110A 25353.71244248 .00000079 00000+0 00000+0 0 9991
L22 43874 2.0816 82.7125 0001500 186.0278 135.2948 1.00270082 25614



Live tracking and technical data element details for TJS-3 (NORAD 43874). TJS-3 can be tracked NOW for your location showing map with azimuth and elevation plus other details from your city location.







IsCatalogInMostPopularTable: catalog: 43874, numindb: 371
Update: records affected: 1



GetName: 43874 TJS-3

Hit Count: updated at: Thu, 21 May 2026 10:18:41 GMT